O3B FM5                 
1 39188U 13031A   19263.40133954 -.00000019  00000-0  00000+0 0  9997
2 39188   0.0598 357.6541 0002656 194.6424 167.7016  5.00115933113968
O3B FM4                 
1 39189U 13031B   19262.34864225 -.00000019  00000-0  00000-0 0  9993
2 39189   0.0336   9.4966 0002589 169.9920 180.5160  5.00116717113934
O3B FM2                 
1 39190U 13031C   19265.31826873 -.00000019  00000-0  00000+0 0  9991
2 39190   0.0287  12.6009 0005236  95.1369 252.3237  5.00115726114049
O3B PFM                 
1 39191U 13031D   19265.94594259 -.00000019  00000-0  00000+0 0  9991
2 39191   0.0560 340.7283 0002680 186.9247 192.3578  5.00142190114087
FREGAT R/B              
1 39192U 13031E   19263.85509751 -.00000016  00000-0  00000-0 0  9991
2 39192   0.0914 138.5754 0009925 342.0497 239.4770  5.20984267118743